TimeCST,TemperatureF,Dew PointF,Humidity,Sea Level PressureIn,VisibilityMPH,Wind Direction,Wind SpeedMPH,Gust SpeedMPH,PrecipitationIn,Events,Conditions,WindDirDegrees,DateUTC
12:55 AM,42.1,37.0,82,29.90,10.0,NW,4.6,-,N/A,,Mostly Cloudy,320,2013-11-14 06:55:00
1:55 AM,43.0,37.0,80,29.89,10.0,Calm,Calm,-,N/A,,Overcast,0,2013-11-14 07:55:00
2:55 AM,42.1,36.0,79,29.89,10.0,Calm,Calm,-,N/A,,Overcast,0,2013-11-14 08:55:00
3:55 AM,42.1,36.0,79,29.89,10.0,West,6.9,-,N/A,,Overcast,280,2013-11-14 09:55:00
4:55 AM,45.0,36.0,71,29.90,10.0,West,8.1,-,N/A,,Overcast,280,2013-11-14 10:55:00
5:55 AM,44.1,36.0,73,29.90,10.0,West,5.8,-,N/A,,Overcast,270,2013-11-14 11:55:00
6:55 AM,44.1,36.0,73,29.90,10.0,West,5.8,-,N/A,,Mostly Cloudy,280,2013-11-14 12:55:00
7:55 AM,43.0,36.0,76,29.92,10.0,WNW,5.8,-,N/A,,Clear,300,2013-11-14 13:55:00
8:55 AM,44.1,35.1,71,29.94,10.0,West,8.1,-,N/A,,Clear,280,2013-11-14 14:55:00
9:55 AM,48.9,35.1,59,29.93,10.0,WNW,17.3,-,N/A,,Clear,300,2013-11-14 15:55:00
10:55 AM,50.0,35.1,57,29.93,10.0,NW,18.4,-,N/A,,Clear,320,2013-11-14 16:55:00
11:55 AM,52.0,35.1,53,29.91,10.0,NW,16.1,24.2,N/A,,Clear,320,2013-11-14 17:55:00
12:55 PM,53.1,35.1,50,29.89,10.0,North,10.4,-,N/A,,Clear,350,2013-11-14 18:55:00
1:55 PM,53.1,35.1,50,29.87,10.0,NW,8.1,-,N/A,,Clear,310,2013-11-14 19:55:00
2:55 PM,53.1,35.1,50,29.86,10.0,West,6.9,-,N/A,,Clear,280,2013-11-14 20:55:00
3:55 PM,53.1,35.1,50,29.85,10.0,West,3.5,-,N/A,,Clear,280,2013-11-14 21:55:00
4:55 PM,46.9,35.1,63,29.85,10.0,Calm,Calm,-,N/A,,Clear,0,2013-11-14 22:55:00
5:55 PM,44.1,35.1,71,29.85,10.0,South,4.6,-,N/A,,Clear,190,2013-11-14 23:55:00
6:55 PM,43.0,34.0,71,29.85,10.0,SSW,4.6,-,N/A,,Clear,200,2013-11-15 00:55:00
7:55 PM,41.0,33.1,73,29.86,10.0,SSW,3.5,-,N/A,,Clear,200,2013-11-15 01:55:00
8:55 PM,37.9,30.9,76,29.85,10.0,SSW,5.8,-,N/A,,Clear,200,2013-11-15 02:55:00
9:55 PM,37.0,30.0,76,29.85,10.0,SSW,4.6,-,N/A,,Clear,210,2013-11-15 03:55:00
10:55 PM,37.0,30.0,76,29.84,10.0,SW,6.9,-,N/A,,Clear,230,2013-11-15 04:55:00
11:55 PM,35.1,28.9,78,29.83,10.0,WSW,3.5,-,N/A,,Clear,250,2013-11-15 05:55:00